Bullhead City, AZ

7:23 AM MST on October 22, 2017 (GMT -0700)
Laughlin-Bullhead International

Weather History for KIFP - January, 2013

Change the Weather History Date:

Wednesday, January 16, 2013

  Actual Average Record
Temperature  
Mean Temperature 50 °F -  
Max Temperature 59 °F 63 °F 73 °F (2014)
Min Temperature 42 °F 46 °F 35 °F (2008)
Degree Days  
Heating Degree Days 14    
Moisture  
Dew Point 20 °F    
Average Humidity 31    
Maximum Humidity 42    
Minimum Humidity 22    
Precipitation  
Precipitation 0.00 in - - ()
Sea Level Pressure  
Sea Level Pressure 30.39 in    
Wind  
Wind Speed 23 mph (North)    
Max Wind Speed 33 mph    
Max Gust Speed 44 mph    
Visibility 10 miles    
Events      
Averages and records for this station are not official NWS values.
T = Trace of Precipitation, MM = Missing Value Source: NWS Daily Summary

Daily Weather History Graph

Daily Weather History Graph

Search for Another Location

Airport or City:

Trip Planner

Search our weather history database for the weather conditions in past years. The results will help you decide how hot, cold, wet, or windy it might be!

Date:

Astronomy

Jan. 16, 2013 Rise Set
Actual Time 7:45 AM MST 5:50 PM MST
Civil Twilight 7:18 AM MST 6:18 PM MST
Nautical Twilight 6:47 AM MST 6:49 PM MST
Astronomical Twilight 6:16 AM MST 7:19 PM MST
Moon 10:38 AM MST (1/16) 11:31 PM MST (1/16)
Length of Visible Light 11h 00m
Length of Day
10h 05m
Waxing Crescent, 29% of the Moon is Illuminated
Jan 16
Waxing Crescent
Jan 18
First Quarter
Jan 26
Full
Feb 3
Last Quarter
Feb 10
New

Hourly Weather History & Observations

Time (MST) Temp. Windchill Dew Point Humidity Pressure Visibility Wind Dir Wind Speed Gust Speed Precip Events Conditions
12:15 AM 44.6 °F 37.2 °F 15.8 °F 31% 30.48 in 10.0 mi North 17.3 mph 23.0 mph N/A   Clear
12:35 AM 44.6 °F 36.1 °F 15.8 °F 31% 30.47 in 10.0 mi North 21.9 mph 28.8 mph N/A   Clear
12:55 AM 44.6 °F 35.1 °F 15.8 °F 31% 30.46 in 10.0 mi North 27.6 mph 34.5 mph N/A   Clear
1:15 AM 44.6 °F 36.1 °F 15.8 °F 31% 30.46 in 10.0 mi North 21.9 mph 29.9 mph N/A   Clear
1:35 AM 44.6 °F 37.4 °F 15.8 °F 31% 30.48 in 10.0 mi NNE 16.1 mph - N/A   Clear
2:15 AM 44.6 °F 35.9 °F 15.8 °F 31% 30.46 in 10.0 mi North 23.0 mph 31.1 mph N/A   Clear
2:35 AM 44.6 °F 36.9 °F 17.6 °F 34% 30.48 in 10.0 mi North 18.4 mph 29.9 mph N/A   Clear
2:55 AM 44.6 °F 36.6 °F 17.6 °F 34% 30.48 in 10.0 mi North 19.6 mph 31.1 mph N/A   Clear
3:15 AM 44.6 °F 34.9 °F 17.6 °F 34% 30.46 in 10.0 mi North 28.8 mph 35.7 mph N/A   Clear
3:35 AM 44.6 °F 35.9 °F 17.6 °F 34% 30.45 in 10.0 mi North 23.0 mph 38.0 mph N/A   Clear
3:55 AM 44.6 °F 36.1 °F 17.6 °F 34% 30.46 in 10.0 mi North 21.9 mph 28.8 mph N/A   Clear
4:15 AM 44.6 °F 36.6 °F 17.6 °F 34% 30.46 in 10.0 mi North 19.6 mph 27.6 mph N/A   Clear
4:35 AM 42.8 °F 35.1 °F 17.6 °F 36% 30.46 in 10.0 mi NNE 16.1 mph 24.2 mph N/A   Clear
4:55 AM 44.6 °F 36.6 °F 17.6 °F 34% 30.45 in 10.0 mi North 19.6 mph 26.5 mph N/A   Clear
5:15 AM 44.6 °F 35.9 °F 19.4 °F 37% 30.44 in 10.0 mi North 23.0 mph 29.9 mph N/A   Clear
5:35 AM 42.8 °F 33.1 °F 19.4 °F 39% 30.43 in 10.0 mi North 25.3 mph 32.2 mph N/A   Clear
5:55 AM 44.6 °F 35.3 °F 19.4 °F 37% 30.43 in 10.0 mi North 26.5 mph 36.8 mph N/A   Clear
6:15 AM 44.6 °F 35.7 °F 19.4 °F 37% 30.44 in 10.0 mi North 24.2 mph 32.2 mph N/A   Clear
6:35 AM 44.6 °F 35.1 °F 19.4 °F 37% 30.43 in 10.0 mi North 27.6 mph 33.4 mph N/A   Clear
6:55 AM 44.6 °F 34.9 °F 19.4 °F 37% 30.43 in 10.0 mi NNE 28.8 mph 34.5 mph N/A   Clear
7:15 AM 42.8 °F 32.9 °F 19.4 °F 39% 30.44 in 10.0 mi NNE 26.5 mph 35.7 mph N/A   Clear
7:35 AM 44.6 °F 35.3 °F 19.4 °F 37% 30.44 in 10.0 mi North 26.5 mph 33.4 mph N/A   Clear
7:55 AM 42.8 °F 33.8 °F 19.4 °F 39% 30.45 in 10.0 mi North 21.9 mph 33.4 mph N/A   Clear
8:15 AM 42.8 °F 34.0 °F 21.2 °F 42% 30.46 in 10.0 mi North 20.7 mph 28.8 mph N/A   Clear
8:35 AM 44.6 °F 36.1 °F 21.2 °F 39% 30.46 in 10.0 mi North 21.9 mph 33.4 mph N/A   Clear
8:55 AM 44.6 °F 35.3 °F 21.2 °F 39% 30.47 in 10.0 mi North 26.5 mph 31.1 mph N/A   Clear
9:15 AM 44.6 °F 35.1 °F 21.2 °F 39% 30.47 in 10.0 mi North 27.6 mph 36.8 mph N/A   Clear
9:35 AM 46.4 °F 38.1 °F 21.2 °F 37% 30.47 in 10.0 mi North 24.2 mph 34.5 mph N/A   Clear
9:55 AM 46.4 °F 37.5 °F 19.4 °F 34% 30.48 in 10.0 mi North 27.6 mph 35.7 mph N/A   Clear
10:15 AM 48.2 °F - 19.4 °F 32% 30.47 in 10.0 mi North 28.8 mph 36.8 mph N/A   Clear
10:35 AM 48.2 °F - 21.2 °F 34% 30.48 in 10.0 mi North 19.6 mph 35.7 mph N/A   Clear
10:55 AM 50.0 °F - 21.2 °F 32% 30.46 in 10.0 mi NNW 24.2 mph 38.0 mph N/A   Clear
11:15 AM 50.0 °F - 21.2 °F 32% 30.45 in 10.0 mi NNW 28.8 mph 42.6 mph N/A   Clear
11:35 AM 50.0 °F - 23.0 °F 35% 30.43 in 10.0 mi NNW 32.2 mph 39.1 mph N/A   Clear
11:55 AM 50.0 °F - 23.0 °F 35% 30.42 in 10.0 mi NNW 29.9 mph 35.7 mph N/A   Clear
12:15 PM 51.8 °F - 23.0 °F 33% 30.41 in 10.0 mi NNW 23.0 mph 35.7 mph N/A   Clear
12:55 PM 53.6 °F - 23.0 °F 30% 30.37 in 10.0 mi NNW 27.6 mph 41.4 mph N/A   Clear
1:15 PM 53.6 °F - 23.0 °F 30% 30.36 in 10.0 mi NNW 31.1 mph 40.3 mph N/A   Clear
1:35 PM 55.4 °F - 23.0 °F 29% 30.34 in 10.0 mi NNW 31.1 mph 43.7 mph N/A   Clear
1:55 PM 55.4 °F - 21.2 °F 26% 30.33 in 10.0 mi North 32.2 mph 43.7 mph N/A   Clear
2:35 PM 55.4 °F - 23.0 °F 29% 30.30 in 10.0 mi NNW 33.4 mph 40.3 mph N/A   Clear
2:55 PM 57.2 °F - 23.0 °F 27% 30.29 in 10.0 mi NNW 33.4 mph 39.1 mph N/A   Clear
3:15 PM 57.2 °F - 23.0 °F 27% 30.29 in 10.0 mi NNW 31.1 mph 36.8 mph N/A   Clear
3:55 PM 59.0 °F - 19.4 °F 22% 30.28 in 10.0 mi North 27.6 mph 36.8 mph N/A   Clear
4:15 PM 59.0 °F - 19.4 °F 22% 30.28 in 10.0 mi North 27.6 mph 34.5 mph N/A   Clear
4:35 PM 59.0 °F - 21.2 °F 23% 30.29 in 10.0 mi North 25.3 mph 38.0 mph N/A   Clear
4:55 PM 59.0 °F - 21.2 °F 23% 30.29 in 10.0 mi North 26.5 mph 35.7 mph N/A   Clear
5:15 PM 57.2 °F - 23.0 °F 27% 30.29 in 10.0 mi NNW 28.8 mph 35.7 mph N/A   Clear
5:35 PM 57.2 °F - 21.2 °F 25% 30.30 in 10.0 mi North 25.3 mph 29.9 mph N/A   Clear
5:55 PM 57.2 °F - 21.2 °F 25% 30.30 in 10.0 mi North 21.9 mph 28.8 mph N/A   Clear
6:15 PM 57.2 °F - 21.2 °F 25% 30.30 in 10.0 mi North 20.7 mph 27.6 mph N/A   Clear
6:35 PM 57.2 °F - 19.4 °F 23% 30.30 in 10.0 mi NNE 20.7 mph 29.9 mph N/A   Clear
6:55 PM 57.2 °F - 19.4 °F 23% 30.31 in 10.0 mi North 19.6 mph 27.6 mph N/A   Clear
7:15 PM 55.4 °F - 19.4 °F 25% 30.31 in 10.0 mi North 20.7 mph 27.6 mph N/A   Clear
7:35 PM 55.4 °F - 19.4 °F 25% 30.32 in 10.0 mi NNE 18.4 mph - N/A   Clear
7:55 PM 55.4 °F - 21.2 °F 26% 30.32 in 10.0 mi NNE 13.8 mph 20.7 mph N/A   Clear
8:15 PM 55.4 °F - 21.2 °F 26% 30.32 in 10.0 mi NNE 17.3 mph 23.0 mph N/A   Clear
8:35 PM 55.4 °F - 21.2 °F 26% 30.31 in 10.0 mi North 21.9 mph 28.8 mph N/A   Clear
8:55 PM 55.4 °F - 21.2 °F 26% 30.32 in 10.0 mi North 19.6 mph 26.5 mph N/A   Clear
9:15 PM 55.4 °F - 19.4 °F 25% 30.31 in 10.0 mi North 23.0 mph 28.8 mph N/A   Clear
9:35 PM 55.4 °F - 19.4 °F 25% 30.31 in 10.0 mi North 24.2 mph - N/A   Clear
9:55 PM 55.4 °F - 19.4 °F 25% 30.31 in 10.0 mi North 21.9 mph 29.9 mph N/A   Clear
10:15 PM 53.6 °F - 19.4 °F 26% 30.31 in 10.0 mi North 21.9 mph 27.6 mph N/A   Clear
10:35 PM 53.6 °F - 21.2 °F 28% 30.31 in 10.0 mi North 20.7 mph 27.6 mph N/A   Clear
10:55 PM 53.6 °F - 19.4 °F 26% 30.31 in 10.0 mi NNE 21.9 mph 27.6 mph N/A   Clear
11:15 PM 53.6 °F - 19.4 °F 26% 30.31 in 10.0 mi North 23.0 mph 32.2 mph N/A   Clear
11:35 PM 53.6 °F - 19.4 °F 26% 30.31 in 10.0 mi North 24.2 mph 34.5 mph N/A   Clear
11:55 PM 53.6 °F - 19.4 °F 26% 30.32 in 10.0 mi North 20.7 mph 29.9 mph N/A   Clear